Time,TemperatureF,DewpointF,PressureIn,WindDirection,WindDirectionDegrees,WindSpeedMPH,WindSpeedGustMPH,Humidity,HourlyPrecipIn,Conditions,Clouds,dailyrainin,SoftwareType,DateUTC
2013-05-31 00:01:00,60.0,36.0,30.14,WSW,240,1.0,5.0,40,0.00,,,0.00,,2013-05-31 07:01:00,
2013-05-31 00:11:00,59.0,35.0,30.14,SW,228,2.0,7.0,41,0.00,,,0.00,,2013-05-31 07:11:00,
2013-05-31 00:21:00,59.0,35.0,30.14,SW,228,2.0,7.0,41,0.00,,,0.00,,2013-05-31 07:21:00,
2013-05-31 00:32:00,60.0,36.0,30.14,SW,224,3.0,7.0,41,0.00,,,0.00,,2013-05-31 07:32:00,
2013-05-31 00:41:00,60.0,36.0,30.14,SW,224,3.0,7.0,41,0.00,,,0.00,,2013-05-31 07:41:00,
2013-05-31 00:52:00,60.0,36.0,30.14,SW,224,3.0,7.0,41,0.00,,,0.00,,2013-05-31 07:52:00,
2013-05-31 01:01:00,60.0,36.0,30.13,SW,216,5.0,10.0,41,0.00,,,0.00,,2013-05-31 08:01:00,
2013-05-31 01:11:00,60.0,36.0,30.13,SW,216,5.0,10.0,41,0.00,,,0.00,,2013-05-31 08:11:00,
2013-05-31 01:21:00,60.0,36.0,30.13,SW,216,5.0,10.0,41,0.00,,,0.00,,2013-05-31 08:21:00,
2013-05-31 01:31:00,60.0,36.0,30.13,SW,216,5.0,10.0,41,0.00,,,0.00,,2013-05-31 08:31:00,
2013-05-31 01:42:00,60.0,36.0,30.13,SW,216,5.0,10.0,41,0.00,,,0.00,,2013-05-31 08:42:00,
2013-05-31 01:52:00,59.0,37.0,30.12,WSW,239,6.0,13.0,44,0.00,,,0.00,,2013-05-31 08:52:00,
2013-05-31 02:01:00,59.0,38.0,30.12,SW,235,6.0,11.0,45,0.00,,,0.00,,2013-05-31 09:01:00,
2013-05-31 02:11:00,59.0,38.0,30.12,SW,235,6.0,11.0,45,0.00,,,0.00,,2013-05-31 09:11:00,
2013-05-31 02:21:00,59.0,38.0,30.12,SW,235,6.0,11.0,45,0.00,,,0.00,,2013-05-31 09:21:00,
2013-05-31 02:32:00,57.0,37.0,30.15,WSW,240,4.0,10.0,47,0.00,,,0.00,,2013-05-31 09:32:00,
2013-05-31 02:42:00,57.0,37.0,30.15,WSW,240,4.0,10.0,47,0.00,,,0.00,,2013-05-31 09:42:00,
2013-05-31 02:53:00,55.0,37.0,30.15,West,261,4.0,7.0,50,0.00,,,0.00,,2013-05-31 09:53:00,
2013-05-31 03:02:00,53.0,36.0,30.15,WSW,245,6.0,9.0,53,0.00,,,0.00,,2013-05-31 10:02:00,
2013-05-31 03:12:00,54.0,37.0,30.15,WSW,247,3.0,12.0,53,0.00,,,0.00,,2013-05-31 10:12:00,
2013-05-31 03:22:00,54.0,37.0,30.15,WSW,247,3.0,12.0,53,0.00,,,0.00,,2013-05-31 10:22:00,
2013-05-31 03:32:00,53.0,37.0,30.15,WSW,254,4.0,7.0,55,0.00,,,0.00,,2013-05-31 10:32:00,
2013-05-31 03:42:00,53.0,37.0,30.15,WSW,254,4.0,7.0,55,0.00,,,0.00,,2013-05-31 10:42:00,
2013-05-31 03:52:00,52.0,37.0,30.15,WSW,244,5.0,9.0,57,0.00,,,0.00,,2013-05-31 10:52:00,
2013-05-31 04:01:00,52.0,38.0,30.16,WSW,249,5.0,8.0,58,0.00,,,0.00,,2013-05-31 11:01:00,
2013-05-31 04:11:00,52.0,38.0,30.16,WSW,249,5.0,8.0,58,0.00,,,0.00,,2013-05-31 11:11:00,
2013-05-31 04:22:00,51.0,38.0,30.15,WSW,248,4.0,10.0,60,0.00,,,0.00,,2013-05-31 11:22:00,
2013-05-31 04:32:00,51.0,38.0,30.15,WSW,248,4.0,10.0,60,0.00,,,0.00,,2013-05-31 11:32:00,
2013-05-31 04:41:00,51.0,38.0,30.15,WSW,248,4.0,10.0,60,0.00,,,0.00,,2013-05-31 11:41:00,
2013-05-31 04:52:00,51.0,38.0,30.15,WSW,248,4.0,10.0,60,0.00,,,0.00,,2013-05-31 11:52:00,
2013-05-31 05:01:00,50.0,38.0,30.15,WSW,252,6.0,13.0,63,0.00,,,0.00,,2013-05-31 12:01:00,
2013-05-31 05:11:00,50.0,38.0,30.15,WSW,252,6.0,13.0,63,0.00,,,0.00,,2013-05-31 12:11:00,
2013-05-31 05:21:00,50.0,38.0,30.15,WSW,252,6.0,13.0,63,0.00,,,0.00,,2013-05-31 12:21:00,
2013-05-31 05:31:00,48.0,37.0,30.16,WSW,251,5.0,9.0,66,0.00,,,0.00,,2013-05-31 12:31:00,
2013-05-31 05:41:00,48.0,37.0,30.16,WSW,251,5.0,9.0,66,0.00,,,0.00,,2013-05-31 12:41:00,
2013-05-31 05:52:00,48.0,37.0,30.16,WSW,251,5.0,9.0,66,0.00,,,0.00,,2013-05-31 12:52:00,
2013-05-31 06:01:00,49.0,38.0,30.16,WSW,255,6.0,9.0,66,0.00,,,0.00,,2013-05-31 13:01:00,
2013-05-31 06:11:00,49.0,38.0,30.16,WSW,255,6.0,9.0,66,0.00,,,0.00,,2013-05-31 13:11:00,
2013-05-31 06:21:00,49.0,38.0,30.17,West,262,7.0,12.0,65,0.00,,,0.00,,2013-05-31 13:21:00,
2013-05-31 06:32:00,52.0,40.0,30.18,WSW,252,6.0,13.0,64,0.00,,,0.00,,2013-05-31 13:32:00,
2013-05-31 06:42:00,52.0,40.0,30.18,WSW,252,6.0,13.0,64,0.00,,,0.00,,2013-05-31 13:42:00,
2013-05-31 06:52:00,55.0,41.0,30.18,WSW,246,7.0,14.0,60,0.00,,,0.00,,2013-05-31 13:52:00,
2013-05-31 07:02:00,55.0,41.0,30.18,WSW,246,7.0,14.0,60,0.00,,,0.00,,2013-05-31 14:02:00,
2013-05-31 07:11:00,55.0,41.0,30.18,WSW,246,7.0,14.0,60,0.00,,,0.00,,2013-05-31 14:11:00,
2013-05-31 07:21:00,55.0,41.0,30.18,WSW,246,7.0,14.0,60,0.00,,,0.00,,2013-05-31 14:21:00,
2013-05-31 07:31:00,64.0,43.0,30.18,WSW,238,7.0,15.0,46,0.00,,,0.00,,2013-05-31 14:31:00,
2013-05-31 07:42:00,64.0,43.0,30.18,WSW,238,7.0,15.0,46,0.00,,,0.00,,2013-05-31 14:42:00,
2013-05-31 07:52:00,64.0,43.0,30.18,WSW,238,7.0,15.0,46,0.00,,,0.00,,2013-05-31 14:52:00,
2013-05-31 08:01:00,66.0,42.0,30.17,WSW,253,10.0,18.0,41,0.00,,,0.00,,2013-05-31 15:01:00,
2013-05-31 08:11:00,66.0,42.0,30.17,WSW,253,10.0,18.0,41,0.00,,,0.00,,2013-05-31 15:11:00,
2013-05-31 08:21:00,66.0,40.0,30.18,WSW,253,9.0,18.0,39,0.00,,,0.00,,2013-05-31 15:21:00,
2013-05-31 08:33:00,66.0,40.0,30.18,WSW,253,9.0,18.0,39,0.00,,,0.00,,2013-05-31 15:33:00,
2013-05-31 08:42:00,66.0,40.0,30.18,WSW,253,9.0,18.0,39,0.00,,,0.00,,2013-05-31 15:42:00,
2013-05-31 08:53:00,68.0,39.0,30.19,West,263,11.0,18.0,35,0.00,,,0.00,,2013-05-31 15:53:00,
2013-05-31 09:03:00,69.0,38.0,30.19,WSW,240,5.0,14.0,32,0.00,,,0.00,,2013-05-31 16:03:00,
2013-05-31 09:12:00,69.0,38.0,30.19,WSW,240,5.0,14.0,32,0.00,,,0.00,,2013-05-31 16:12:00,
2013-05-31 09:22:00,69.0,38.0,30.19,WSW,240,5.0,14.0,32,0.00,,,0.00,,2013-05-31 16:22:00,
2013-05-31 09:33:00,71.0,37.0,30.18,West,266,5.0,15.0,29,0.00,,,0.00,,2013-05-31 16:33:00,
2013-05-31 09:41:00,71.0,37.0,30.18,West,266,5.0,15.0,29,0.00,,,0.00,,2013-05-31 16:41:00,
2013-05-31 09:52:00,71.0,37.0,30.18,West,266,5.0,15.0,29,0.00,,,0.00,,2013-05-31 16:52:00,
2013-05-31 10:02:00,72.0,35.0,30.18,SW,228,4.0,13.0,26,0.00,,,0.00,,2013-05-31 17:02:00,
2013-05-31 10:12:00,72.0,35.0,30.18,SW,228,4.0,13.0,26,0.00,,,0.00,,2013-05-31 17:12:00,
2013-05-31 10:22:00,73.0,34.0,30.18,WNW,289,7.0,12.0,24,0.00,,,0.00,,2013-05-31 17:22:00,
2013-05-31 10:31:00,74.0,34.0,30.18,SSW,208,6.0,13.0,23,0.00,,,0.00,,2013-05-31 17:31:00,
2013-05-31 10:42:00,74.0,34.0,30.18,SSW,208,6.0,13.0,23,0.00,,,0.00,,2013-05-31 17:42:00,
2013-05-31 10:52:00,74.0,34.0,30.18,SSE,155,4.0,13.0,23,0.00,,,0.00,,2013-05-31 17:52:00,
2013-05-31 11:01:00,74.0,34.0,30.18,SSE,155,4.0,13.0,23,0.00,,,0.00,,2013-05-31 18:01:00,
2013-05-31 11:11:00,74.0,34.0,30.18,SSE,155,4.0,13.0,23,0.00,,,0.00,,2013-05-31 18:11:00,
2013-05-31 11:21:00,75.0,32.0,30.18,SSW,194,5.0,13.0,21,0.00,,,0.00,,2013-05-31 18:21:00,
2013-05-31 11:32:00,75.0,32.0,30.18,SSW,194,5.0,13.0,21,0.00,,,0.00,,2013-05-31 18:32:00,
2013-05-31 11:42:00,75.0,32.0,30.18,SSW,194,5.0,13.0,21,0.00,,,0.00,,2013-05-31 18:42:00,
2013-05-31 11:52:00,76.0,32.0,30.17,WSW,253,6.0,14.0,20,0.00,,,0.00,,2013-05-31 18:52:00,
2013-05-31 12:01:00,77.0,30.0,30.17,South,189,5.0,17.0,18,0.00,,,0.00,,2013-05-31 19:01:00,
2013-05-31 12:11:00,77.0,30.0,30.17,South,189,5.0,17.0,18,0.00,,,0.00,,2013-05-31 19:11:00,
2013-05-31 12:22:00,77.0,32.0,30.17,West,279,3.0,13.0,19,0.00,,,0.00,,2013-05-31 19:22:00,
2013-05-31 12:31:00,77.0,30.0,30.16,NW,309,7.0,16.0,18,0.00,,,0.00,,2013-05-31 19:31:00,
2013-05-31 12:41:00,78.0,28.0,30.16,West,280,3.0,15.0,16,0.00,,,0.00,,2013-05-31 19:41:00,
2013-05-31 12:52:00,78.0,28.0,30.16,West,280,3.0,15.0,16,0.00,,,0.00,,2013-05-31 19:52:00,
2013-05-31 13:01:00,77.0,29.0,30.16,West,264,9.0,17.0,17,0.00,,,0.00,,2013-05-31 20:01:00,
2013-05-31 13:11:00,77.0,29.0,30.16,West,264,9.0,17.0,17,0.00,,,0.00,,2013-05-31 20:11:00,
2013-05-31 13:22:00,77.0,29.0,30.16,West,264,9.0,17.0,17,0.00,,,0.00,,2013-05-31 20:22:00,
2013-05-31 13:31:00,77.0,29.0,30.16,West,264,9.0,17.0,17,0.00,,,0.00,,2013-05-31 20:31:00,
2013-05-31 14:01:00,79.0,27.0,30.16,West,267,6.0,14.0,15,0.00,,,0.00,,2013-05-31 21:01:00,
2013-05-31 14:11:00,79.0,27.0,30.16,West,267,6.0,14.0,15,0.00,,,0.00,,2013-05-31 21:11:00,
2013-05-31 14:22:00,80.0,25.0,30.15,WSW,243,7.0,13.0,13,0.00,,,0.00,,2013-05-31 21:22:00,
2013-05-31 14:32:00,80.0,25.0,30.15,WSW,243,7.0,13.0,13,0.00,,,0.00,,2013-05-31 21:32:00,
2013-05-31 14:41:00,81.0,27.0,30.14,SW,231,5.0,15.0,14,0.00,,,0.00,,2013-05-31 21:41:00,
2013-05-31 14:42:00,80.0,27.0,30.14,West,278,7.0,16.0,14,0.00,,,0.00,,2013-05-31 21:42:00,
2013-05-31 14:53:00,80.0,27.0,30.14,West,278,7.0,16.0,14,0.00,,,0.00,,2013-05-31 21:53:00,
2013-05-31 15:02:00,81.0,27.0,30.14,SW,231,5.0,15.0,14,0.00,,,0.00,,2013-05-31 22:02:00,
2013-05-31 15:12:00,81.0,27.0,30.14,SW,231,5.0,15.0,14,0.00,,,0.00,,2013-05-31 22:12:00,
2013-05-31 15:22:00,81.0,27.0,30.14,SW,231,5.0,15.0,14,0.00,,,0.00,,2013-05-31 22:22:00,
2013-05-31 15:33:00,81.0,27.0,30.14,SW,231,5.0,15.0,14,0.00,,,0.00,,2013-05-31 22:33:00,
2013-05-31 16:02:00,81.0,26.0,30.14,West,262,4.0,15.0,13,0.00,,,0.00,,2013-05-31 23:02:00,
2013-05-31 16:12:00,81.0,26.0,30.14,West,262,4.0,15.0,13,0.00,,,0.00,,2013-05-31 23:12:00,
2013-05-31 16:21:00,80.0,23.0,30.14,WNW,286,6.0,14.0,12,0.00,,,0.00,,2013-05-31 23:21:00,
2013-05-31 16:32:00,81.0,26.0,30.14,West,275,9.0,18.0,13,0.00,,,0.00,,2013-05-31 23:32:00,
2013-05-31 16:42:00,81.0,26.0,30.14,WSW,250,8.0,13.0,13,0.00,,,0.00,,2013-05-31 23:42:00,
2013-05-31 16:52:00,81.0,26.0,30.14,WSW,250,8.0,13.0,13,0.00,,,0.00,,2013-05-31 23:52:00,
2013-05-31 17:01:00,80.0,27.0,30.14,South,187,4.0,13.0,14,0.00,,,0.00,,2013-06-01 00:01:00,
2013-05-31 17:11:00,80.0,30.0,30.14,WSW,239,4.0,12.0,16,0.00,,,0.00,,2013-06-01 00:11:00,
2013-05-31 17:21:00,80.0,30.0,30.14,WSW,239,4.0,12.0,16,0.00,,,0.00,,2013-06-01 00:21:00,
2013-05-31 17:31:00,80.0,30.0,30.14,WSW,239,4.0,12.0,16,0.00,,,0.00,,2013-06-01 00:31:00,
2013-05-31 17:42:00,80.0,30.0,30.14,WSW,239,4.0,12.0,16,0.00,,,0.00,,2013-06-01 00:42:00,
2013-05-31 17:51:00,80.0,30.0,30.14,WSW,239,4.0,12.0,16,0.00,,,0.00,,2013-06-01 00:51:00,
2013-05-31 18:01:00,80.0,31.0,30.14,North,0,0.0,8.0,17,0.00,,,0.00,,2013-06-01 01:01:00,
2013-05-31 18:11:00,80.0,31.0,30.14,North,0,0.0,8.0,17,0.00,,,0.00,,2013-06-01 01:11:00,
2013-05-31 18:21:00,80.0,31.0,30.14,North,0,0.0,8.0,17,0.00,,,0.00,,2013-06-01 01:21:00,
2013-05-31 18:31:00,79.0,30.0,30.13,WNW,290,8.0,11.0,17,0.00,,,0.00,,2013-06-01 01:31:00,
2013-05-31 18:42:00,79.0,33.0,30.13,West,280,6.0,10.0,19,0.00,,,0.00,,2013-06-01 01:42:00,
2013-05-31 18:52:00,79.0,33.0,30.13,West,280,6.0,10.0,19,0.00,,,0.00,,2013-06-01 01:52:00,
2013-05-31 19:01:00,78.0,31.0,30.14,NW,320,7.0,12.0,18,0.00,,,0.00,,2013-06-01 02:01:00,
2013-05-31 19:11:00,78.0,31.0,30.14,NNW,328,7.0,12.0,18,0.00,,,0.00,,2013-06-01 02:11:00,
2013-05-31 19:21:00,78.0,31.0,30.14,NNW,328,7.0,12.0,18,0.00,,,0.00,,2013-06-01 02:21:00,
2013-05-31 19:31:00,75.0,30.0,30.14,NW,310,6.0,10.0,19,0.00,,,0.00,,2013-06-01 02:31:00,
2013-05-31 19:41:00,74.0,29.0,30.14,North,0,0.0,5.0,19,0.00,,,0.00,,2013-06-01 02:41:00,
2013-05-31 19:51:00,74.0,29.0,30.14,North,0,0.0,5.0,19,0.00,,,0.00,,2013-06-01 02:51:00,
2013-05-31 20:01:00,73.0,30.0,30.15,ENE,69,1.0,3.0,20,0.00,,,0.00,,2013-06-01 03:01:00,
2013-05-31 20:11:00,70.0,28.0,30.15,North,0,0.0,4.0,21,0.00,,,0.00,,2013-06-01 03:11:00,
2013-05-31 20:21:00,70.0,28.0,30.15,North,0,0.0,4.0,21,0.00,,,0.00,,2013-06-01 03:21:00,
2013-05-31 20:33:00,67.0,29.0,30.16,North,0,0.0,3.0,24,0.00,,,0.00,,2013-06-01 03:33:00,
2013-05-31 20:43:00,67.0,29.0,30.16,North,0,0.0,3.0,24,0.00,,,0.00,,2013-06-01 03:43:00,
2013-05-31 20:53:00,67.0,29.0,30.16,North,0,0.0,3.0,24,0.00,,,0.00,,2013-06-01 03:53:00,
2013-05-31 21:02:00,64.0,29.0,30.17,North,0,0.0,0.0,27,0.00,,,0.00,,2013-06-01 04:02:00,
2013-05-31 21:11:00,60.0,28.0,30.19,North,0,0.0,5.0,30,0.00,,,0.00,,2013-06-01 04:11:00,
2013-05-31 21:12:00,61.0,28.0,30.19,SSE,168,1.0,5.0,28,0.00,,,0.00,,2013-06-01 04:12:00,
2013-05-31 21:22:00,61.0,28.0,30.19,SSE,168,1.0,5.0,28,0.00,,,0.00,,2013-06-01 04:22:00,
2013-05-31 21:33:00,60.0,28.0,30.19,North,0,0.0,5.0,30,0.00,,,0.00,,2013-06-01 04:33:00,
2013-05-31 21:42:00,60.0,28.0,30.19,North,0,0.0,5.0,30,0.00,,,0.00,,2013-06-01 04:42:00,
2013-05-31 21:53:00,60.0,28.0,30.19,North,0,0.0,5.0,30,0.00,,,0.00,,2013-06-01 04:53:00,
2013-05-31 22:02:00,60.0,28.0,30.19,North,0,0.0,5.0,30,0.00,,,0.00,,2013-06-01 05:02:00,
2013-05-31 22:32:00,55.0,26.0,30.22,North,0,0.0,4.0,33,0.00,,,0.00,,2013-06-01 05:32:00,
2013-05-31 22:42:00,55.0,26.0,30.22,NW,312,2.0,5.0,33,0.00,,,0.00,,2013-06-01 05:42:00,
2013-05-31 23:12:00,51.0,25.0,30.22,North,0,0.0,2.0,36,0.00,,,0.00,,2013-06-01 06:12:00,
2013-05-31 23:32:00,50.0,25.0,30.22,North,0,0.0,0.0,38,0.00,,,0.00,,2013-06-01 06:32:00,